[[{"header":{"parameterUnit":"m.s-1","parameterCategory":1,"la1":30.2991,"la2":30.254,"lo1":-89.0895,"lo2":-89.0444,"dy":0.0017,"dx":0.0017,"nx":28,"ny":28,"refTime":"2025-03-08T03:00:00:Z","depth":0,"parameterNumber":2,"parameterNumberName":"U-component_of_WINDS"},"data":[0,0,0,0,0,0,0,0,0,0,0,0,0,0,0,0,0,0,0,0,0,0,0,0,0,0,0,0,0,0,0,0,0,0,0,0,0,0,0,0,0,0,0,0,0,0,0,0,0,0,0,0,0,0,0,0,0,0,5.1659,5.1658,0,5.1585,5.1584,5.1583,5.1427,5.1424,5.1421,5.1418,5.1349,5.135,5.1351,0,0,0,0,0,0,0,0,0,0,0,0,0,5.1674,5.1674,5.1659,5.1658,5.1657,5.1585,5.1584,5.1583,5.1428,5.1424,5.142,5.1416,5.1349,5.135,5.1351,0,0,0,0,0,0,0,0,0,0,0,0,0,5.1641,5.1674,5.1659,5.1571,5.1562,5.1585,5.1584,5.1583,5.1429,5.1424,5.1419,5.1415,5.1348,5.135,5.1351,5.1457,0,0,5.1357,5.1357,0,0,0,0,0,0,0,0,5.1643,5.164,5.1585,5.1577,5.1567,5.151,5.1564,5.1541,5.143,5.1479,5.1418,5.1412,5.1407,5.1404,5.14,5.1454,5.1451,5.1357,5.1358,5.1358,5.1359,0,0,0,0,0,0,0,5.1645,5.1643,5.163,5.1584,5.1573,5.1538,5.1528,5.1559,5.1471,5.1475,5.1463,5.1456,5.1401,5.1399,5.1398,5.145,5.1357,5.1358,5.1359,5.136,5.1592,5.1597,0,0,0,0,0,0,5.1659,5.1646,5.1632,5.1628,5.1594,5.1541,5.153,5.1533,5.147,5.1456,5.146,5.1449,5.1399,5.1396,5.1395,5.1518,5.1358,5.136,5.1361,5.1587,5.1593,5.1599,0,0,0,0,0,0,5.166,5.166,5.1635,5.1633,5.1627,5.1546,5.1551,5.1535,5.1532,5.1459,5.1444,5.1474,5.1395,5.1392,5.1443,5.1514,5.1361,5.1362,5.1581,5.1589,5.1596,5.1765,0,0,0,0,0,0,5.1661,5.1661,5.1698,5.1635,5.1628,5.1683,5.1555,5.1537,5.1535,5.1519,5.1468,5.1455,5.1391,5.1442,5.1445,5.1513,5.1364,5.1575,5.1585,5.1594,5.1752,5.1777,5.1798,0,0,0,0,0,5.1662,5.1748,5.17,5.17,5.1672,5.1687,5.1684,5.1607,5.1541,5.1579,5.1533,5.1456,5.1505,5.1448,5.1451,5.1521,5.157,5.1582,5.1593,5.1742,5.1772,5.1798,0,0,0,0,0,0,5.1822,5.1738,5.1684,5.1752,5.1728,5.1661,5.1707,5.164,5.1636,5.1622,5.1528,5.1518,5.1584,5.1556,5.1495,5.1622,5.1525,5.1538,5.1638,5.1666,5.1688,5.1695,5.1365,0,0,0,0,0,5.1865,5.1882,5.1808,5.1876,5.1866,5.1789,5.1793,5.1736,5.1708,5.1697,5.1654,5.1633,5.1643,5.1652,5.1657,5.1747,5.1736,5.1796,5.1819,5.1838,5.1852,5.1902,5.193,5.1637,5.1637,5.1637,0,0,5.1955,5.1911,5.1927,5.1907,5.1881,5.1905,5.1782,5.181,5.1828,5.1702,5.1749,5.1717,5.1687,5.1759,5.1789,5.1739,5.193,5.1853,5.1869,5.1872,5.1917,5.1945,5.197,5.1645,5.1644,5.1642,0,0,5.213,5.2096,5.2151,5.2129,5.2092,5.204,5.2054,5.1997,5.1972,5.2016,5.1924,5.1945,5.1963,5.1947,5.1942,5.2115,5.2047,5.2119,5.2241,5.2291,5.2314,5.2334,5.2401,5.2426,5.2132,5.2133,5.2133,0,5.2247,5.2275,5.2188,5.2224,5.222,5.2106,5.2164,5.2146,5.2114,5.2116,5.2059,5.2083,5.2054,5.2124,5.2167,5.2164,5.218,5.2126,5.2317,5.2337,5.2354,5.2417,5.2442,5.2142,5.2141,5.214,5.2139,0,5.2424,5.2445,5.2494,5.2466,5.2467,5.2513,5.2437,5.2449,5.2392,5.2348,5.2399,5.236,5.2358,5.2369,5.2314,5.2433,5.2404,5.2334,5.2235,5.2393,5.2451,5.2474,5.2156,5.2152,5.215,5.2147,0,0,5.2698,5.2622,5.2642,5.263,5.2582,5.2599,5.2642,5.2639,5.2654,5.2636,5.2673,5.2693,5.2629,5.2623,5.2565,5.2609,5.2756,5.2534,5.2532,5.2581,5.289,5.2947,5.2976,5.2708,5.2712,5.2716,5.2895,0,5.2867,5.2934,5.2859,5.2944,5.2966,5.286,5.2898,5.2876,5.2836,5.2852,5.2808,5.2826,5.2737,5.2734,5.2772,5.273,5.2818,5.2715,5.2747,5.2749,5.2762,5.3005,5.3063,5.3234,5.2916,5.292,5.2922,0,5.3072,5.3064,5.3152,5.3102,5.3109,5.3144,5.3138,5.3152,5.3126,5.3094,5.3089,5.302,5.3063,5.2965,5.3025,5.2958,5.2966,5.2948,5.2952,5.2956,5.2848,5.302,5.3286,5.3314,5.2956,5.2953,5.2951,0,5.3271,5.3281,5.3336,5.3328,5.3271,5.33,5.3277,5.3246,5.325,5.3245,5.3248,5.3248,5.325,5.3253,5.3188,5.3121,5.3259,5.3153,5.3238,5.3241,5.3275,5.3275,5.3552,5.3273,5.3273,5.3272,5.3272,0,5.3469,5.3528,5.3425,5.346,5.3525,5.3439,5.3506,5.3473,5.3446,5.3476,5.3382,5.3412,5.3321,5.3343,5.3291,5.3353,5.3353,5.3332,5.3319,5.3343,5.3347,5.335,5.3338,5.3279,5.3278,5.3276,5.3275,0,5.3703,5.3636,5.369,5.3631,5.3618,5.3669,5.362,5.3652,5.3607,5.3645,5.3649,5.358,5.36,5.3534,5.3544,5.3509,5.3601,5.3565,5.361,5.3601,5.3691,5.3686,5.3984,5.4021,5.3715,5.3718,5.3721,0,5.3836,5.3879,5.3826,5.3838,5.3821,5.3841,5.3846,5.3763,5.3772,5.3747,5.3784,5.3796,5.3802,5.3841,5.3793,5.3802,5.3769,5.3873,5.377,5.3794,5.3776,5.3777,5.3783,5.3896,5.3899,5.3902,5.3905,0,5.4082,5.4047,5.4056,5.4055,5.4063,5.4058,5.4047,5.4063,5.3975,5.399,5.401,5.4015,5.4025,5.4041,5.404,5.4019,5.3951,5.3937,5.3958,5.3986,5.4012,5.4004,5.3674,5.3932,5.3929,5.3927,5.3925,5.3924,5.4273,5.4308,5.4277,5.4292,5.4275,5.4268,5.4296,5.4254,5.4268,5.427,5.4221,5.4252,5.4228,5.4219,5.4206,5.4232,5.4184,5.4213,5.4221,5.4231,5.4249,5.4004,5.4231,5.423,5.4229,5.4228,5.4228,0,5.4518,5.4493,5.4507,5.4495,5.4508,5.4438,5.4423,5.444,5.4468,5.445,5.4458,5.4484,5.4499,5.4453,5.4462,5.4492,5.4461,5.4498,5.4497,5.4495,5.4288,5.4271,5.4523,5.4523,5.4523,5.4523,5.4523,5.4523,5.4648,5.4706,5.4668,5.4718,5.4693,5.4722,5.472,5.4715,5.4701,5.4733,5.4745,5.4714,5.4687,5.4694,5.4707,5.4693,5.4703,5.4753,5.4729,5.4537,5.4509,5.4481,5.4465,5.4754,5.4754,5.4934,5.4935,5.4937]},{"header":{"parameterUnit":"m.s-1","parameterCategory":1,"la1":30.2991,"la2":30.254,"lo1":-89.0895,"lo2":-89.0444,"dy":0.0017,"dx":0.0017,"nx":28,"ny":28,"refTime":"2025-03-08T03:00:00:Z","depth":0,"parameterNumber":3,"parameterNumberName":"V-component_of_WINDS"},"data":[0,0,0,0,0,0,0,0,0,0,0,0,0,0,0,0,0,0,0,0,0,0,0,0,0,0,0,0,0,0,0,0,0,0,0,0,0,0,0,0,0,0,0,0,0,0,0,0,0,0,0,0,0,0,0,0,0,0,2.1555,2.1557,0,2.173,2.1731,2.1733,2.179,2.1789,2.1788,2.1788,2.1962,2.1967,2.1972,0,0,0,0,0,0,0,0,0,0,0,0,0,2.1264,2.1269,2.1555,2.1557,2.156,2.1729,2.1732,2.1734,2.179,2.1789,2.1788,2.1787,2.196,2.1966,2.1973,0,0,0,0,0,0,0,0,0,0,0,0,0,2.141,2.1271,2.1555,2.1608,2.1615,2.1729,2.1732,2.1735,2.179,2.1789,2.1788,2.1787,2.1958,2.1966,2.1974,2.2046,0,0,2.1998,2.2002,0,0,0,0,0,0,0,0,2.1401,2.142,2.1598,2.1605,2.1612,2.1737,2.1693,2.1839,2.179,2.1723,2.1788,2.1786,2.1888,2.1901,2.1937,2.2055,2.2062,2.1999,2.2004,2.2007,2.201,0,0,0,0,0,0,0,2.1391,2.1413,2.1624,2.1601,2.1609,2.1621,2.164,2.1721,2.181,2.1729,2.1734,2.1754,2.1891,2.1929,2.1941,2.2065,2.1999,2.2006,2.2011,2.2014,2.2246,2.2247,0,0,0,0,0,0,2.1373,2.1404,2.1619,2.1629,2.1502,2.1627,2.1649,2.1698,2.1809,2.1825,2.1755,2.1756,2.1915,2.1932,2.1947,2.2037,2.2007,2.2015,2.2019,2.2245,2.2246,2.2248,0,0,0,0,0,0,2.1366,2.1392,2.1612,2.1518,2.1547,2.1633,2.1688,2.1702,2.174,2.1828,2.1844,2.1777,2.1915,2.1936,2.2021,2.2044,2.2018,2.2026,2.2243,2.2245,2.2247,2.2219,0,0,0,0,0,0,2.1358,2.1389,2.1419,2.1518,2.1552,2.1684,2.169,2.1706,2.1754,2.1757,2.1853,2.1868,2.1916,2.2008,2.2029,2.2055,2.2032,2.2241,2.2244,2.2246,2.2218,2.222,2.2221,0,0,0,0,0,2.1347,2.1405,2.1421,2.1446,2.1592,2.1685,2.1704,2.1759,2.1755,2.1785,2.1841,2.1865,2.2038,2.2017,2.204,2.2069,2.224,2.2243,2.2246,2.2218,2.222,2.2221,0,0,0,0,0,0,2.1306,2.1419,2.1438,2.1529,2.1597,2.1695,2.1735,2.176,2.183,2.183,2.1893,2.1915,2.1994,2.204,2.2014,2.2142,2.214,2.2148,2.211,2.2113,2.2114,2.2101,2.2039,0,0,0,0,0,2.1307,2.1376,2.147,2.1541,2.1574,2.1648,2.1691,2.1727,2.18,2.1828,2.1891,2.1959,2.2028,2.2073,2.2142,2.2224,2.2244,2.2255,2.2257,2.2257,2.2264,2.2307,2.2312,2.2258,2.2258,2.2257,0,0,2.1311,2.1381,2.1421,2.1534,2.1592,2.1658,2.1672,2.1743,2.1793,2.1839,2.1923,2.197,2.205,2.2133,2.2172,2.2173,2.2283,2.2261,2.2261,2.2267,2.2311,2.2316,2.232,2.226,2.2259,2.2259,0,0,2.1352,2.1413,2.1478,2.1534,2.162,2.1668,2.1683,2.1776,2.181,2.1895,2.193,2.1988,2.2107,2.2162,2.2205,2.2261,2.2284,2.2281,2.2289,2.2331,2.2335,2.2339,2.2357,2.2363,2.2287,2.2287,2.2287,0,2.1346,2.1451,2.1508,2.1577,2.1624,2.1668,2.1733,2.1784,2.1887,2.1918,2.1917,2.2065,2.2122,2.2217,2.223,2.2264,2.2281,2.2271,2.233,2.2335,2.2339,2.2357,2.2364,2.2286,2.2286,2.2286,2.2286,0,2.1437,2.1508,2.155,2.1649,2.1701,2.1767,2.1831,2.1877,2.1906,2.1953,2.2037,2.2106,2.2188,2.2213,2.2243,2.2311,2.2308,2.2318,2.2317,2.2343,2.236,2.2368,2.2284,2.2285,2.2285,2.2285,0,0,2.146,2.1587,2.1602,2.1646,2.1741,2.1796,2.1862,2.1943,2.1979,2.2048,2.2103,2.22,2.2209,2.2257,2.2293,2.233,2.2366,2.2335,2.2338,2.2337,2.2442,2.2433,2.2441,2.2382,2.2383,2.2385,2.2434,0,2.1513,2.1635,2.1686,2.1784,2.1848,2.1889,2.1945,2.2009,2.2053,2.2112,2.216,2.2228,2.2235,2.2264,2.2302,2.2354,2.2388,2.2351,2.2431,2.2434,2.2411,2.2451,2.2443,2.2487,2.2442,2.2443,2.2444,0,2.1592,2.1661,2.1764,2.1849,2.1878,2.1929,2.2005,2.2062,2.2132,2.2161,2.2214,2.2247,2.2314,2.2307,2.2398,2.2372,2.2407,2.2437,2.244,2.245,2.2441,2.246,2.2503,2.2509,2.2456,2.2455,2.2454,0,2.1596,2.1714,2.1791,2.1827,2.1929,2.1963,2.2006,2.2076,2.212,2.2185,2.2214,2.2285,2.2325,2.2378,2.2428,2.2419,2.2514,2.2512,2.2538,2.2537,2.2557,2.2555,2.2605,2.258,2.258,2.258,2.2579,0,2.165,2.1711,2.1794,2.1841,2.191,2.1966,2.2031,2.2077,2.2138,2.2192,2.2231,2.2281,2.2344,2.2401,2.244,2.2508,2.2526,2.2549,2.2559,2.2546,2.2543,2.2571,2.2569,2.2581,2.2581,2.2581,2.258,0,2.1667,2.1726,2.1811,2.1899,2.1922,2.1969,2.2043,2.2088,2.2133,2.2201,2.222,2.2289,2.2357,2.2413,2.2502,2.2528,2.2599,2.261,2.2575,2.258,2.2603,2.26,2.2672,2.2684,2.2651,2.2651,2.2651,0,2.1698,2.1746,2.1838,2.1878,2.1921,2.1984,2.2029,2.2085,2.2129,2.2211,2.2245,2.2316,2.2377,2.2483,2.254,2.2607,2.262,2.264,2.263,2.2614,2.2618,2.2615,2.2619,2.2641,2.2641,2.2642,2.2642,0,2.1745,2.177,2.1835,2.1907,2.196,2.202,2.208,2.2109,2.2175,2.2223,2.2293,2.234,2.243,2.2499,2.2571,2.2613,2.2637,2.2644,2.2653,2.2641,2.2618,2.2629,2.2577,2.2642,2.2642,2.2642,2.2642,2.2642,2.1769,2.1813,2.1884,2.1953,2.2004,2.2058,2.2105,2.2154,2.2215,2.2293,2.2321,2.2393,2.2458,2.2558,2.2599,2.2654,2.2656,2.267,2.2674,2.2676,2.2674,2.2609,2.2667,2.2667,2.2667,2.2667,2.2667,0,2.1817,2.1864,2.1927,2.201,2.2063,2.2082,2.2149,2.2191,2.2254,2.2313,2.2371,2.245,2.2516,2.2576,2.2644,2.2676,2.2689,2.2692,2.269,2.2699,2.2669,2.2654,2.268,2.268,2.268,2.268,2.268,2.268,2.1849,2.1923,2.1956,2.2053,2.2099,2.2171,2.2207,2.2256,2.2304,2.239,2.2446,2.2485,2.2544,2.2615,2.2675,2.2691,2.2714,2.2714,2.2732,2.2703,2.2701,2.2699,2.2685,2.2718,2.2718,2.2758,2.2758,2.2758]}]]